Mount Ida, AR

1:56 PM CST on December 07, 2016 (GMT -0600)
Mount Ida

Weather History for KMWT - January, 2013

Change the Weather History Date:

Saturday, January 5, 2013

  Actual Average (KHOT) Record (KHOT)
Temperature  
Mean Temperature 38 °F -  
Max Temperature 46 °F 48 °F 68 °F (1956)
Min Temperature 30 °F 28 °F 8 °F (1959)
Degree Days  
Heating Degree Days 27    
Moisture  
Dew Point 31 °F    
Average Humidity 79    
Maximum Humidity 100    
Minimum Humidity 59    
Precipitation  
Precipitation 0.00 in - - ()
Sea Level Pressure  
Sea Level Pressure 30.31 in    
Wind  
Wind Speed 1 mph (North)    
Max Wind Speed 7 mph    
Max Gust Speed -    
Visibility 9 miles    
Events Snow    
Averages and records for this station are not official NWS values.
T = Trace of Precipitation, MM = Missing Value Source: NWS Daily Summary

Daily Weather History Graph

Daily Weather History Graph

Search for Another Location

Airport or City:

Trip Planner

Search our weather history database for the weather conditions in past years. The results will help you decide how hot, cold, wet, or windy it might be!

Date:

Astronomy

Jan. 05, 2013 Rise Set
Actual Time 7:21 AM CST 5:18 PM CST
Civil Twilight 6:53 AM CST 5:46 PM CST
Nautical Twilight 6:22 AM CST 6:17 PM CST
Astronomical Twilight 5:52 AM CST 6:47 PM CST
Moon 12:37 AM CST (1/5) 12:01 PM CST (1/5)
Length of Visible Light 10h 52m
Length of Day
9h 56m
Last Quarter, 44% of the Moon is Illuminated
Jan 5
Last Quarter
Jan 11
New
Jan 18
First Quarter
Jan 26
Full
Feb 3
Last Quarter

Hourly Weather History & Observations

Time (CST) Temp. Windchill Dew Point Humidity Pressure Visibility Wind Dir Wind Speed Gust Speed Precip Events Conditions
12:53 AM 30.9 °F - 27.0 °F 85% 30.36 in 10.0 mi Calm Calm - N/A   Partly Cloudy
1:53 AM 32.0 °F - 28.0 °F 85% 30.35 in 10.0 mi Calm Calm - N/A   Overcast
2:53 AM 32.0 °F - 28.0 °F 85% 30.35 in 10.0 mi Calm Calm - N/A   Overcast
3:53 AM 33.1 °F - 28.9 °F 85% 30.35 in 9.0 mi Calm Calm - 0.00 in Snow Light Snow
4:53 AM 34.0 °F - 30.0 °F 85% 30.36 in 10.0 mi Calm Calm - 0.00 in   Overcast
5:53 AM 34.0 °F - 30.0 °F 85% 30.36 in 10.0 mi Calm Calm - N/A   Overcast
6:53 AM 34.0 °F - 30.0 °F 85% 30.36 in 10.0 mi Calm Calm - 0.00 in   Overcast
7:53 AM 34.0 °F - 30.9 °F 89% 30.37 in 10.0 mi Calm Calm - 0.00 in   Overcast
8:53 AM 36.0 °F - 32.0 °F 86% 30.37 in 10.0 mi Calm Calm - N/A   Overcast
9:53 AM 42.1 °F - 30.0 °F 62% 30.34 in 10.0 mi Calm Calm - N/A   Overcast
10:53 AM 43.0 °F - 30.0 °F 60% 30.35 in 10.0 mi Calm Calm - N/A   Overcast
11:53 AM 45.0 °F 41.2 °F 32.0 °F 60% 30.30 in 10.0 mi Variable 6.9 mph - N/A   Overcast
12:53 PM 46.9 °F - 33.1 °F 59% 30.26 in 10.0 mi Variable 6.9 mph - N/A   Overcast
1:53 PM 46.9 °F - 33.1 °F 59% 30.24 in 10.0 mi Variable 4.6 mph - N/A   Mostly Cloudy
2:53 PM 46.0 °F 43.9 °F 34.0 °F 63% 30.24 in 10.0 mi Variable 4.6 mph - N/A   Overcast
3:53 PM 46.0 °F 43.9 °F 34.0 °F 63% 30.25 in 10.0 mi Variable 4.6 mph - N/A   Overcast
4:53 PM 45.0 °F 43.5 °F 34.0 °F 65% 30.25 in 10.0 mi Variable 3.5 mph - N/A   Mostly Cloudy
5:53 PM 42.1 °F - 34.0 °F 73% 30.25 in 10.0 mi Calm Calm - N/A   Clear
6:53 PM 39.9 °F - 34.0 °F 79% 30.26 in 10.0 mi Calm Calm - N/A   Clear
7:53 PM 34.0 °F - 32.0 °F 92% 30.27 in 10.0 mi Calm Calm - N/A   Scattered Clouds
8:53 PM 36.0 °F - 33.1 °F 89% 30.27 in 10.0 mi Calm Calm - N/A   Mostly Cloudy
9:53 PM 32.0 °F - 30.9 °F 96% 30.27 in 8.0 mi Calm Calm - N/A   Clear
10:53 PM 30.9 °F - 30.0 °F 96% 30.29 in 4.0 mi Calm Calm - N/A   Clear
11:53 PM 30.0 °F - 30.0 °F 100% 30.27 in 3.0 mi Calm Calm - N/A   Clear